Location: Luxembourg
(49.6117°N, 6.1300°E)
Time: 01:42:45
(UTC+01:00)

ISS - Pass Details

Date: 30 January 2019
Orbit: 403 x 411 km, 51.6° (Epoch: 20 February)

Event Time Altitude Azimuth Distance (km) Brightness Sun altitude
Rises 18:59:37 0° 268° (W) 2,333 1.9 -15.0°
Reaches altitude 10° 19:01:43 10° 272° (W) 1,475 0.3 -15.4°
Maximum altitude 19:05:00 61° 353° (N) 471 -3.6 -15.9°
Enters shadow 19:06:01 39° 57° (ENE) 638 -3.3 -16.1°
